GFSFLT1_250_rhum_285.txt.gz
RH
100 87 90 71 96 91 63 61 68 100 100 100 100 90 100 100 95 67 58 72 60 58 49 42 27 27 28 27 24 22 33 36 59
90 91 93 86 97 86 86 68 66 67 87 100 100 100 98 98 100 100 84 73 59 66 58 60 49 34 32 32 32 30 25 23 25
98 63 78 76 92 91 91 97 78 62 62 64 83 100 100 100 100 78 80 90 84 62 70 65 68 46 46 45 42 41 37 29 22
87 86 66 56 74 92 84 76 76 76 61 65 66 72 81 100 100 100 86 92 99 82 87 75 64 60 52 46 54 52 41 41 37
100 83 79 66 57 56 83 100 94 94 84 62 68 72 70 58 79 100 100 99 100 96 86 86 82 80 87 63 47 47 54 51 44
100 100 95 90 78 56 68 85 97 93 84 79 79 74 75 66 58 49 60 81 96 98 90 73 81 87 99 76 74 45 50 54 49
100 100 100 100 94 78 79 79 89 100 98 78 70 85 74 72 70 70 58 58 91 87 86 81 79 93 100 100 100 73 50 51 53
80 100 100 100 100 100 97 78 80 86 100 95 81 79 82 66 69 76 70 60 64 100 95 78 84 97 100 100 100 80 55 47 58
78 85 90 87 79 95 100 100 98 85 95 100 87 85 81 88 68 74 67 64 67 68 83 89 78 95 100 100 100 84 78 53 46
41 55 73 69 60 61 80 100 100 100 100 100 100 100 98 94 78 69 81 89 72 70 63 60 76 100 100 100 100 97 72 64 52
29 33 41 58 70 72 64 50 91 100 100 100 100 100 92 98 100 94 71 87 82 74 75 67 72 97 100 100 100 86 80 72 49
35 31 33 36 40 54 87 69 41 75 99 100 100 100 100 98 100 100 100 87 87 95 91 85 73 62 63 100 100 76 69 63 46
37 43 42 37 35 39 56 69 68 50 52 57 85 100 100 100 95 100 100 98 98 82 94 90 88 73 67 87 82 73 70 55 44
34 32 35 43 41 39 36 51 68 78 74 54 37 50 85 100 100 100 100 100 100 98 79 75 92 85 79 65 62 66 71 48 59
29 30 30 31 36 39 36 37 47 71 76 64 62 55 45 44 64 93 100 100 100 100 87 82 70 86 83 78 60 56 68 71 70
25 26 27 28 31 32 35 33 36 40 64 86 74 88 76 60 43 60 88 94 100 100 100 97 81 92 80 90 70 57 62 90 78
21 21 22 24 24 29 31 30 31 34 37 61 78 85 94 90 74 59 65 69 78 100 100 100 98 90 88 93 86 70 75 85 99
11 10 10 11 14 20 25 27 25 29 31 33 59 81 73 92 90 81 75 69 56 61 95 88 92 87 91 100 98 100 78 78 100
7 7 7 7 7 9 17 24 24 21 26 30 34 56 86 89 98 85 78 74 59 54 75 90 100 99 83 100 100 98 100 94 100
7 6 6 6 6 7 8 13 22 22 20 24 29 34 58 84 94 95 86 73 62 68 74 94 65 88 82 100 100 100 96 90 100

GFSFLT1_250_rhum_288.txt.gz
RH
100 100 100 100 100 100 91 70 78 71 94 100 100 100 100 81 100 100 96 72 66 69 54 34 31 24 20 20 20 18 19 42 100
100 100 100 100 100 100 100 100 94 74 75 78 99 100 100 93 73 88 100 100 93 65 78 66 46 38 34 25 28 30 31 22 23
90 88 97 100 100 100 100 100 100 100 98 67 71 98 95 87 91 98 99 100 100 98 79 65 67 66 54 50 30 30 31 32 36
100 68 74 83 91 100 100 100 100 99 100 100 100 80 90 80 88 99 100 100 100 95 92 87 68 68 66 68 54 43 41 48 53
100 100 100 65 64 74 84 89 94 100 100 100 100 100 100 98 75 79 77 99 100 100 84 99 80 74 80 70 66 47 48 57 57
100 100 100 100 56 56 58 64 73 88 88 97 100 100 100 96 84 71 80 59 65 99 100 100 85 73 69 62 69 65 55 63 46
93 100 100 100 100 85 49 41 49 54 62 73 80 97 100 100 97 88 78 84 69 55 54 86 97 75 74 78 76 80 72 78 63
73 93 95 99 100 95 100 89 48 48 50 49 56 61 84 100 100 100 87 87 89 74 56 49 41 51 50 56 63 89 100 100 99
54 69 72 89 88 100 100 100 100 60 44 45 49 64 82 78 100 100 100 90 96 85 68 62 57 49 54 68 50 63 100 100 100
22 24 61 73 61 76 98 100 97 100 92 59 51 56 60 84 75 97 95 94 91 88 82 74 68 61 75 71 74 62 66 92 100
19 24 24 30 69 66 64 80 90 100 100 100 85 60 65 69 86 83 99 77 80 90 87 77 75 75 67 57 64 99 61 99 100
30 26 23 26 23 36 68 61 56 71 97 93 100 100 92 90 97 100 100 100 94 88 84 84 83 79 69 64 56 77 99 67 100
49 44 36 32 28 25 26 37 54 56 57 87 85 99 100 100 100 100 100 100 96 100 92 87 82 75 82 74 66 62 90 94 100
40 45 45 37 31 26 26 28 24 34 54 61 59 75 96 96 100 100 100 100 100 99 99 98 83 100 90 89 72 72 77 73 76
36 33 31 34 31 26 24 23 24 27 23 41 50 58 70 83 71 99 100 100 100 100 100 100 95 82 100 100 92 79 80 84 77
30 30 29 24 22 20 21 21 21 22 26 21 25 38 54 62 65 62 91 100 100 100 100 100 98 100 98 100 100 97 94 96 96
30 25 21 21 21 22 21 21 21 21 22 25 26 24 35 49 62 56 67 73 100 100 100 100 100 100 100 100 100 100 100 98 92
24 22 21 19 18 19 20 20 20 21 20 21 22 26 22 32 42 55 67 71 72 96 100 100 100 100 100 100 100 100 100 96 85
24 22 22 20 20 19 18 19 20 21 23 20 21 22 26 25 33 37 57 78 79 68 90 92 94 100 100 100 100 100 100 98 89
16 13 10 9 8 8 9 11 14 16 20 20 19 21 22 28 24 31 38 70 82 77 71 83 80 93 100 100 100 100 100 100 98

GFSFLT1_250_rhum_294.txt.gz
RH
93 92 99 100 99 100 100 100 100 100 100 100 100 100 100 90 100 87 82 73 82 100 100 100 76 55 25 18 21 63 100 100 97
100 100 97 98 84 97 100 100 100 100 100 100 100 100 100 100 97 99 85 63 66 68 100 100 100 78 60 24 18 17 20 40 42
93 67 100 100 97 87 100 100 96 100 100 100 100 100 100 100 96 75 94 85 65 66 56 100 100 100 85 71 32 23 18 19 19
100 100 73 85 100 84 100 100 100 100 100 100 100 100 100 100 100 100 68 86 98 75 71 77 100 100 100 96 75 69 29 20 22
100 100 100 100 62 96 98 100 100 100 100 100 100 100 100 100 100 100 100 80 97 100 74 73 74 97 100 100 100 87 79 40 31
100 100 80 100 100 98 80 86 90 91 98 100 100 100 100 100 100 100 100 100 96 100 80 82 69 73 100 100 100 100 97 74 66
100 100 100 100 100 100 100 100 70 80 93 94 97 100 100 100 100 100 100 100 99 97 100 95 86 81 80 100 100 100 92 84 76
68 100 100 100 100 100 100 100 100 100 88 82 78 90 100 100 100 100 100 100 100 100 96 100 100 100 100 99 100 100 100 95 79
25 40 75 76 71 97 100 99 99 100 100 100 89 69 85 95 97 94 97 100 100 100 100 100 100 100 100 100 100 100 100 100 94
35 30 31 42 42 47 53 65 89 92 100 100 87 70 71 82 90 90 89 89 100 100 100 100 87 100 100 100 100 100 100 100 100
62 62 56 43 39 34 29 41 43 43 70 99 100 100 90 75 95 77 86 79 87 95 99 100 99 95 100 100 100 100 100 98 94
78 81 70 67 69 60 54 44 38 36 43 44 70 91 95 100 100 79 96 84 75 81 88 99 100 93 95 84 98 100 100 100 100
49 44 47 70 73 75 74 69 64 51 40 35 35 40 67 83 98 100 98 100 87 74 74 80 94 100 83 86 85 100 100 100 100
35 34 32 29 32 39 38 41 45 74 60 51 38 32 35 46 64 86 100 100 75 80 74 66 69 88 88 81 83 95 90 100 100
38 37 37 33 27 23 26 25 26 33 52 43 32 31 32 28 36 41 75 82 100 100 100 94 66 64 65 75 81 82 80 100 100
36 38 41 38 39 30 21 18 18 18 22 29 35 30 28 31 30 26 22 56 77 90 100 100 100 63 60 60 68 69 100 82 100
38 38 39 38 37 32 30 24 20 17 18 16 18 19 22 19 23 27 32 23 28 57 76 100 100 100 66 82 73 84 61 77 100
37 36 37 37 38 31 28 31 30 24 21 18 15 16 17 17 17 21 22 29 27 24 43 68 100 100 100 83 94 97 94 73 97
47 38 40 45 46 36 24 28 27 24 24 19 14 13 12 11 12 16 17 20 25 29 22 30 62 98 100 100 100 98 100 95 80
45 46 49 53 45 35 24 19 18 16 15 15 16 12 10 10 10 10 12 14 19 20 26 23 19 52 90 100 100 98 100 100 94

GFSFLT1_250_rhum_297.txt.gz
RH
51 82 100 100 100 100 100 100 100 100 100 100 100 95 88 79 94 78 81 76 92 64 67 92 100 87 71 52 22 23 56 76 81
51 46 48 51 62 99 100 100 100 100 100 100 100 100 100 85 75 100 98 91 79 76 56 87 100 100 99 71 42 22 29 59 99
100 69 59 48 51 66 92 100 98 100 100 100 100 100 100 100 100 80 90 100 100 98 73 68 98 100 100 94 69 54 25 19 25
100 97 97 59 47 65 71 70 90 100 100 100 100 100 100 100 100 100 69 94 100 100 100 91 60 75 100 100 100 78 57 27 22
94 100 100 100 82 58 41 65 77 85 92 85 100 100 100 100 100 100 100 97 60 84 100 100 99 58 65 100 100 100 100 82 54
92 100 100 100 100 100 83 49 37 70 57 77 87 100 100 100 100 100 100 100 98 72 59 82 100 100 81 100 93 100 100 100 78
100 100 97 100 100 100 100 100 79 49 51 64 90 65 100 100 100 100 100 100 100 97 72 70 86 100 100 80 81 77 97 100 100
100 100 100 92 100 98 100 100 100 100 94 38 38 56 100 100 100 100 100 100 100 100 98 65 88 95 100 100 83 78 75 98 100
20 34 81 90 100 100 97 93 91 98 87 100 94 60 41 66 98 100 100 100 100 100 100 100 69 79 86 100 100 97 86 94 100
36 34 32 44 59 79 80 83 84 84 97 89 99 100 78 40 72 85 98 100 100 100 100 100 100 62 91 79 89 100 100 99 97
47 42 47 47 46 49 56 60 72 67 62 81 91 100 100 100 100 80 62 85 93 100 100 100 100 100 78 99 90 94 100 100 100
58 50 50 53 43 39 34 34 42 48 59 76 82 64 78 99 100 99 99 98 78 85 86 97 100 100 100 98 100 99 99 100 100
67 61 58 45 44 49 39 33 28 32 26 32 52 73 69 62 80 99 100 96 89 71 97 86 95 100 100 100 100 87 98 100 100
74 59 52 47 43 43 38 42 52 43 26 30 32 34 52 68 68 75 80 86 97 97 98 92 83 85 95 100 100 100 93 100 100
80 64 46 41 48 46 42 35 28 28 25 28 28 26 27 32 54 64 69 69 65 78 99 76 91 75 72 86 97 100 98 81 99
49 41 52 34 34 35 34 34 31 30 26 23 25 26 25 21 20 29 46 62 54 52 68 88 95 100 100 62 82 87 100 100 89
33 35 37 38 35 32 31 32 32 32 32 32 27 28 28 24 23 20 18 28 49 46 51 53 77 93 100 96 70 77 81 100 100
32 34 34 37 37 38 38 33 30 32 33 34 33 30 28 27 21 21 18 17 22 34 45 46 49 67 85 98 100 61 81 91 99
50 53 60 59 44 43 49 45 40 37 31 32 32 30 30 26 24 25 19 16 18 17 25 42 50 48 60 77 86 100 95 94 95
62 58 71 69 57 47 43 42 38 41 42 39 40 40 33 28 28 22 25 14 14 15 15 22 36 46 48 58 70 75 100 100 96